Location: Newark
(23.3970°S, 47.6010°W)
Time: 08:24:00
(UTC+00:00)

deb Explorer IX - Pass Details

Date: 26 February 2020
Orbit: 548 x 1100 km, 38.8° (Epoch: 08 April)

Event Time Altitude Azimuth Distance (km) Brightness Sun altitude
Rises 05:14:59 0° 234° (SW) 3,907 - -47.7°
Reaches altitude 10° 05:17:50 10° 230° (SW) 2,964 - -47.3°
Maximum altitude 05:25:04 57° 152° (SSE) 1,265 - -46.1°
Drops below altitude 10° 05:31:55 10° 74° (ENE) 2,815 - -44.9°
Exits shadow 05:32:14 - 73° (ENE) 2,920 ? -44.9°
Sets 05:34:33 0° 70° (ENE) 3,699 ? -44.5°
